TimeEST,TemperatureF,Dew PointF,Humidity,Sea Level PressureIn,VisibilityMPH,Wind Direction,Wind SpeedMPH,Gust SpeedMPH,PrecipitationIn,Events,Conditions,WindDirDegrees,DateUTC
12:44 AM,33.8,33.8,100,29.77,1.5,Calm,Calm,-,N/A,,Overcast,0,2013-02-24 05:44:00
12:53 AM,34.0,33.1,96,29.83,2.0,Calm,Calm,-,N/A,,Overcast,0,2013-02-24 05:53:00
1:10 AM,33.8,32.0,93,29.77,3.0,Calm,Calm,-,N/A,,Overcast,0,2013-02-24 06:10:00
1:49 AM,33.8,32.0,93,29.76,10.0,Calm,Calm,-,N/A,,Overcast,0,2013-02-24 06:49:00
1:53 AM,34.0,32.0,92,29.81,10.0,Calm,Calm,-,N/A,,Overcast,0,2013-02-24 06:53:00
2:27 AM,33.8,30.2,87,29.75,5.0,NW,4.6,-,N/A,,Overcast,310,2013-02-24 07:27:00
2:33 AM,33.8,32.0,93,29.75,1.8,NW,3.5,-,N/A,,Overcast,320,2013-02-24 07:33:00
2:47 AM,33.8,32.0,93,29.76,3.0,Calm,Calm,-,N/A,,Overcast,0,2013-02-24 07:47:00
2:53 AM,33.1,32.0,96,29.81,5.0,Calm,Calm,-,N/A,,Overcast,0,2013-02-24 07:53:00
3:10 AM,33.8,32.0,93,29.76,2.0,Calm,Calm,-,N/A,,Overcast,0,2013-02-24 08:10:00
3:14 AM,33.8,32.0,93,29.76,1.8,Calm,Calm,-,N/A,,Overcast,0,2013-02-24 08:14:00
3:30 AM,33.8,33.8,100,29.76,3.0,Calm,Calm,-,N/A,,Overcast,0,2013-02-24 08:30:00
3:53 AM,33.1,32.0,96,29.79,3.0,NNW,3.5,-,N/A,,Overcast,330,2013-02-24 08:53:00
4:00 AM,33.8,32.0,93,29.74,2.5,NNW,4.6,-,N/A,,Overcast,330,2013-02-24 09:00:00
4:12 AM,33.8,32.0,93,29.74,5.0,Calm,Calm,-,N/A,,Overcast,0,2013-02-24 09:12:00
4:22 AM,33.8,33.8,100,29.74,10.0,Calm,Calm,-,N/A,,Overcast,0,2013-02-24 09:22:00
4:30 AM,33.8,32.0,93,29.73,10.0,Calm,Calm,-,N/A,,Overcast,0,2013-02-24 09:30:00
4:39 AM,33.8,32.0,93,29.73,9.0,Calm,Calm,-,N/A,,Overcast,0,2013-02-24 09:39:00
4:53 AM,33.1,32.0,96,29.77,9.0,Calm,Calm,-,N/A,,Overcast,0,2013-02-24 09:53:00
5:10 AM,33.8,32.0,93,29.73,9.0,Calm,Calm,-,N/A,,Overcast,0,2013-02-24 10:10:00
5:18 AM,33.8,32.0,93,29.73,9.0,Calm,Calm,-,N/A,,Overcast,0,2013-02-24 10:18:00
5:21 AM,33.8,32.0,93,29.73,8.0,NNW,3.5,-,N/A,,Overcast,330,2013-02-24 10:21:00
5:39 AM,33.8,32.0,93,29.73,5.0,NW,5.8,-,N/A,,Overcast,320,2013-02-24 10:39:00
5:46 AM,33.8,32.0,93,29.73,1.8,NW,5.8,-,N/A,,Overcast,320,2013-02-24 10:46:00
5:53 AM,34.0,32.0,92,29.78,1.5,NW,5.8,-,N/A,,Overcast,310,2013-02-24 10:53:00
6:04 AM,33.8,33.8,100,29.73,2.5,NNW,4.6,-,N/A,,Overcast,330,2013-02-24 11:04:00
6:11 AM,33.8,33.8,100,29.73,5.0,NNW,6.9,-,N/A,,Overcast,330,2013-02-24 11:11:00
6:25 AM,33.8,32.0,93,29.74,1.5,NW,8.1,-,N/A,,Overcast,320,2013-02-24 11:25:00
6:35 AM,33.8,32.0,93,29.73,0.5,NW,6.9,-,N/A,Fog,Fog,320,2013-02-24 11:35:00
6:53 AM,34.0,33.1,96,29.78,1.2,NW,6.9,-,N/A,,Overcast,320,2013-02-24 11:53:00
6:59 AM,33.8,32.0,93,29.74,3.0,NW,6.9,-,N/A,,Overcast,320,2013-02-24 11:59:00
7:16 AM,33.8,32.0,93,29.74,9.0,NW,8.1,-,N/A,,Overcast,320,2013-02-24 12:16:00
7:48 AM,33.8,30.2,87,29.74,9.0,NNW,6.9,16.1,N/A,,Overcast,330,2013-02-24 12:48:00
7:53 AM,34.0,30.9,89,29.79,9.0,NW,9.2,-,N/A,,Overcast,320,2013-02-24 12:53:00
8:07 AM,33.8,30.2,87,29.74,2.5,NW,10.4,19.6,N/A,,Overcast,310,2013-02-24 13:07:00
8:20 AM,32.0,30.2,93,29.75,4.0,NW,15.0,23.0,N/A,,Overcast,320,2013-02-24 13:20:00
8:53 AM,32.0,30.0,92,29.80,6.0,NW,10.4,17.3,N/A,,Overcast,320,2013-02-24 13:53:00
9:02 AM,32.0,28.4,87,29.74,8.0,NW,9.2,18.4,N/A,,Overcast,320,2013-02-24 14:02:00
9:19 AM,33.8,28.4,81,29.74,10.0,NW,10.4,-,N/A,,Mostly Cloudy,320,2013-02-24 14:19:00
9:26 AM,33.8,28.4,81,29.74,10.0,NW,10.4,17.3,N/A,,Overcast,320,2013-02-24 14:26:00
9:53 AM,34.0,27.0,75,29.79,10.0,NNW,11.5,18.4,N/A,,Mostly Cloudy,340,2013-02-24 14:53:00
10:53 AM,34.0,26.1,73,29.80,10.0,NW,9.2,18.4,N/A,,Overcast,320,2013-02-24 15:53:00
11:53 AM,34.0,25.0,70,29.81,10.0,NW,10.4,19.6,N/A,,Overcast,320,2013-02-24 16:53:00
12:50 PM,32.0,26.6,80,29.74,9.0,NW,11.5,19.6,N/A,,Overcast,310,2013-02-24 17:50:00
12:53 PM,32.0,26.1,79,29.80,9.0,NW,12.7,19.6,N/A,,Overcast,320,2013-02-24 17:53:00
1:32 PM,30.2,26.6,86,29.75,6.0,NNW,13.8,20.7,N/A,,Haze,330,2013-02-24 18:32:00
1:53 PM,30.0,26.1,85,29.81,4.0,NW,15.0,21.9,N/A,,Overcast,310,2013-02-24 18:53:00
2:31 PM,28.4,24.8,86,29.75,7.0,NW,15.0,25.3,N/A,,Overcast,320,2013-02-24 19:31:00
2:53 PM,28.9,23.0,78,29.82,10.0,NNW,15.0,23.0,N/A,,Overcast,330,2013-02-24 19:53:00
3:11 PM,28.4,21.2,74,29.76,10.0,NW,12.7,21.9,N/A,,Overcast,310,2013-02-24 20:11:00
3:22 PM,28.4,19.4,69,29.77,10.0,WNW,19.6,28.8,N/A,,Overcast,300,2013-02-24 20:22:00
3:53 PM,28.9,19.0,67,29.84,10.0,NW,16.1,23.0,N/A,,Overcast,320,2013-02-24 20:53:00
4:53 PM,28.0,19.9,72,29.86,5.0,NW,15.0,21.9,0.00,Snow,Light Snow,310,2013-02-24 21:53:00
5:53 PM,28.0,18.0,66,29.88,10.0,NW,17.3,27.6,0.00,,Partly Cloudy,310,2013-02-24 22:53:00
6:18 PM,28.4,19.4,69,29.84,10.0,NW,13.8,24.2,0.00,Snow,Light Snow,310,2013-02-24 23:18:00
6:44 PM,26.6,19.4,74,29.85,10.0,NW,13.8,24.2,0.00,,Scattered Clouds,320,2013-02-24 23:44:00
6:53 PM,27.0,19.0,72,29.91,10.0,NW,18.4,24.2,0.00,,Partly Cloudy,320,2013-02-24 23:53:00
7:37 PM,26.6,19.4,74,29.88,10.0,NW,18.4,28.8,N/A,,Mostly Cloudy,320,2013-02-25 00:37:00
7:53 PM,27.0,19.0,72,29.94,10.0,NW,15.0,25.3,N/A,,Mostly Cloudy,320,2013-02-25 00:53:00
8:53 PM,27.0,19.0,72,29.97,10.0,NW,17.3,26.5,N/A,,Mostly Cloudy,320,2013-02-25 01:53:00
9:53 PM,26.1,19.0,75,29.97,10.0,NW,13.8,25.3,N/A,,Overcast,310,2013-02-25 02:53:00
10:53 PM,26.1,19.0,75,29.98,10.0,NNW,11.5,27.6,N/A,,Overcast,330,2013-02-25 03:53:00
11:53 PM,26.1,19.0,75,29.97,10.0,NW,16.1,27.6,N/A,,Mostly Cloudy,320,2013-02-25 04:53:00